Flag Weather past 2 weeks in Mörfelden-Walldorf, Hesse, Germany

Now
37 °F

Partly sunny.


Feels Like: 29 °F
Forecast: 35 / 40 °F
Wind: 13 mph from Northeast

Location: Frankfurt-M-Flughafen Airport

Current Time: Nov 26, 2014 at 9:13:17 AM

Latest Report: Nov 26, 2014 at 8:20 AM


Visibility: N/A

Pressure: 30.07 "Hg

Humidity: 81%

Dew point: 32 °F

Location of Mörfelden-WalldorfLocation

Historic Weather in Mörfelden-Walldorf — Graph

°F

Mörfelden-Walldorf temperature yesterday

Maximum temperature yesterday: 43 °F (at 2:20 PM)
Minimum temperature yesterday: 32 °F (at 2:50 AM)
Average temperature yesterday: 38 °F

Past Weeks' High & Low Weather Summary

 TemperatureHumidityPressure
High54 °F (Nov 14, 12:20 PM)100% (Nov 11, 11:20 PM)30.33 "Hg (Nov 11, 11:20 PM)
Low32 °F (Nov 25, 2:50 AM)66% (Nov 21, 1:20 PM)29.50 "Hg (Nov 16, 5:50 AM)
Average45 °F90%29.95 "Hg
* Reported Nov 11 7:20 AM — Nov 26 7:50 AM, Mörfelden-Walldorf, Weather by CustomWeather, © 2014

Note: Actual official high and low records may vary slightly from our data, if they occured in-between our weather recording intervals... More about our weather records

Advertising

Mörfelden-Walldorf weather history for previous 24 hours

 ConditionsComfort  
Time TempWeatherWind HumidityBarometerVisibility
7:50 AM
Nov 26
39 °FPassing clouds.12 mph75%30.07 "HgN/A
7:20 AM37 °FPassing clouds.13 mph87%30.07 "HgN/A
6:50 AM37 °FPassing clouds.12 mph87%30.07 "HgN/A
6:20 AM37 °FPassing clouds.13 mph87%30.07 "HgN/A
5:50 AM37 °FPassing clouds.10 mph87%30.09 "HgN/A
5:20 AM37 °FClear.10 mph87%30.09 "Hg10 mi
4:20 AM37 °FClear.10 mph87%30.09 "Hg10 mi
3:50 AM36 °FClear.10 mph93%30.09 "Hg10 mi
3:20 AM37 °FPassing clouds.10 mph87%30.12 "HgN/A
2:50 AM37 °FPassing clouds.12 mph87%30.12 "HgN/A
2:20 AM37 °FPassing clouds.12 mph87%30.12 "HgN/A
1:50 AM37 °FPassing clouds.9 mph87%30.12 "HgN/A
1:20 AM37 °FPassing clouds.9 mph87%30.15 "HgN/A
12:50 AM37 °FClear.10 mph87%30.15 "Hg10 mi
12:20 AM39 °FPassing clouds.12 mph87%30.15 "HgN/A
11:50 PM
Nov 25
39 °FPartly cloudy.10 mph87%30.15 "HgN/A
11:20 PM39 °FPassing clouds.12 mph87%30.15 "HgN/A
10:50 PM41 °FOvercast.12 mph81%30.15 "HgN/A
10:20 PM43 °FOvercast.10 mph81%30.15 "HgN/A
9:50 PM43 °FOvercast.10 mph81%30.18 "HgN/A
9:20 PM43 °FOvercast.10 mph81%30.18 "HgN/A
8:50 PM43 °FOvercast.10 mph81%30.18 "HgN/A
8:20 PM43 °FOvercast.8 mph81%30.18 "HgN/A
7:50 PM43 °FOvercast.7 mph81%30.18 "HgN/A
7:20 PM41 °FOvercast.6 mph87%30.18 "HgN/A
6:50 PM43 °FOvercast.7 mph81%30.21 "HgN/A
6:20 PM41 °FOvercast.15 mph87%30.21 "HgN/A
5:50 PM41 °FPassing clouds.7 mph87%30.21 "HgN/A
5:20 PM41 °FPassing clouds.12 mph87%30.21 "HgN/A
4:50 PM41 °FPassing clouds.10 mph87%30.21 "HgN/A
4:20 PM41 °FPartly sunny.10 mph87%30.21 "HgN/A
3:50 PM41 °FScattered clouds.12 mph87%30.21 "HgN/A
3:20 PM41 °FPassing clouds.13 mph87%30.21 "HgN/A
2:50 PM43 °FPassing clouds.10 mph81%30.21 "HgN/A
2:20 PM43 °FPassing clouds.9 mph81%30.21 "HgN/A
1:50 PM41 °FPassing clouds.13 mph87%30.24 "HgN/A
1:20 PM41 °FPassing clouds.13 mph81%30.24 "HgN/A
12:50 PM41 °FPassing clouds.13 mph81%30.24 "HgN/A
12:20 PM41 °FPassing clouds.12 mph81%30.27 "HgN/A
11:50 AM41 °FPassing clouds.13 mph81%30.27 "HgN/A
11:20 AM41 °FPassing clouds.13 mph81%30.27 "HgN/A
10:50 AM41 °FSunny.12 mph87%30.27 "Hg10 mi
10:20 AM39 °FPassing clouds.9 mph87%30.27 "HgN/A
9:50 AM39 °FSunny.8 mph81%30.27 "Hg10 mi
9:20 AM37 °FFog.7 mph87%30.27 "HgN/A
Weather by CustomWeather, © 2014

See weather overviewHow to use our weather pages